FW9002 Weather Reports


time (UTC)temp
F
wind
direction
speed
knots
gust
knots
rain 1hr
in
rain 24hr
in
rain mn
in
humidity
%
barometer
mb
20260505002026 69 303 0.0 0.9 0.00 0.00 0.00 46 1012.8
20260505001523 70 295 0.9 1.7 0.00 0.00 0.00 41 1012.7
20260505001020 72 345 0.0 0.0 0.00 0.00 0.00 40 1012.6
20260505000517 72 267 0.9 1.7 0.00 0.00 0.00 34 1012.2
20260505000015 73 301 1.7 2.6 0.00 0.00 0.00 32 1012.5
20260504235511 73 307 2.6 4.3 0.00 0.00 0.00 30 1012.1
20260504235008 73 293 0.9 1.7 0.00 0.00 0.00 30 1011.5
20260504234505 73 301 1.7 2.6 0.00 0.00 0.00 30 1011.7
20260504234002 73 299 2.6 4.3 0.00 0.00 0.00 30 1011.9
20260504233457 74 319 5.2 6.1 0.00 0.00 0.00 29 1012.0
20260504232954 74 342 2.6 2.6 0.00 0.00 0.00 29 1012.2
20260504232451 74 253 5.2 7.8 0.00 0.00 0.00 28 1012.4
20260504231949 75 298 6.1 7.0 0.00 0.00 0.00 28 1012.5
20260504231445 76 295 4.3 4.3 0.00 0.00 0.00 27 1012.6
20260504230941 77 308 4.3 5.2 0.00 0.00 0.00 23 1012.1
20260504230438 77 272 5.2 7.0 0.00 0.00 0.00 23 1012.1
20260504225937 78 309 3.5 7.8 0.00 0.00 0.00 22 1011.8
20260504225433 78 255 2.6 2.6 0.00 0.00 0.00 22 1011.8
20260504224931 78 280 3.5 4.3 0.00 0.00 0.00 21 1011.7
20260504224427 79 292 5.2 7.0 0.00 0.00 0.00 21 1011.7
20260504223924 79 282 6.1 8.7 0.00 0.00 0.00 20 1011.5
20260504223420 79 283 4.3 6.1 0.00 0.00 0.00 19 1011.8
20260504222916 79 280 4.3 5.2 0.00 0.00 0.00 19 1011.7
20260504222414 79 324 2.6 2.6 0.00 0.00 0.00 20 1011.6
20260504221911 80 341 4.3 6.1 0.00 0.00 0.00 19 1011.7
20260504221408 80 319 1.7 1.7 0.00 0.00 0.00 19 1011.5
20260504220905 80 312 4.3 5.2 0.00 0.00 0.00 18 1011.7
20260504220402 80 304 2.6 2.6 0.00 0.00 0.00 18 1011.7
20260504215859 81 303 4.3 6.1 0.00 0.00 0.00 18 1011.6
20260504215355 81 289 3.5 5.2 0.00 0.00 0.00 18 1011.8
20260504214851 82 270 7.8 8.7 0.00 0.00 0.00 18 1011.6
20260504214348 82 6 2.6 2.6 0.00 0.00 0.00 19 1011.6
20260504213845 82 277 2.6 4.3 0.00 0.00 0.00 18 1011.4
20260504213341 82 294 4.3 6.1 0.00 0.00 0.00 18 1011.4
20260504212838 83 294 2.6 2.6 0.00 0.00 0.00 19 1011.4
20260504212334 83 308 2.6 2.6 0.00 0.00 0.00 17 1011.5
20260504211832 83 312 1.7 2.6 0.00 0.00 0.00 17 1011.5
20260504211328 83 310 0.9 1.7 0.00 0.00 0.00 16 1011.4
20260504210826 83 253 1.7 2.6 0.00 0.00 0.00 16 1011.4
20260504210323 83 295 2.6 4.3 0.00 0.00 0.00 16 1011.7
20260504205820 83 247 4.3 5.2 0.00 0.00 0.00 16 1011.6
20260504205317 83 296 4.3 6.1 0.00 0.00 0.00 16 1011.7
20260504204815 84 260 2.6 2.6 0.00 0.00 0.00 16 1011.5
20260504204314 84 265 1.7 1.7 0.00 0.00 0.00 16 1011.5
20260504203813 84 260 3.5 4.3 0.00 0.00 0.00 16 1011.6
20260504203309 84 276 2.6 1.7 0.00 0.00 0.00 16 1011.6
20260504202804 84 209 3.5 4.3 0.00 0.00 0.00 15 1011.9
20260504202304 84 244 1.7 4.3 0.00 0.00 0.00 17 1011.8
20260504201759 84 284 2.6 2.6 0.00 0.00 0.00 17 1011.8
20260504201256 83 257 2.6 2.6 0.00 0.00 0.00 17 1011.8
20260504200754 83 251 0.9 1.7 0.00 0.00 0.00 18 1012.1
20260504200249 84 212 1.7 1.7 0.00 0.00 0.00 17 1011.9
20260504195746 83 216 2.6 2.6 0.00 0.00 0.00 17 1011.9
20260504195242 83 262 1.7 1.7 0.00 0.00 0.00 18 1011.9
20260504194739 82 359 0.9 0.9 0.00 0.00 0.00 18 1011.9
20260504194235 82 273 2.6 4.3 0.00 0.00 0.00 18 1011.8
20260504193732 82 1 0.9 0.9 0.00 0.00 0.00 20 1011.9
20260504193229 82 248 0.9 0.9 0.00 0.00 0.00 19 1012.1
20260504192727 82 350 1.7 1.7 0.00 0.00 0.00 20 1012.1
20260504192225 82 82 0.0 0.0 0.00 0.00 0.00 20 1011.9
20260504191724 81 142 2.6 2.6 0.00 0.00 0.00 20 1012.1
20260504191220 82 207 2.6 4.3 0.00 0.00 0.00 20 1012.1
20260504190715 81 149 0.0 0.0 0.00 0.00 0.00 20 1012.4
20260504190212 80 203 1.7 1.7 0.00 0.00 0.00 21 1012.0
20260504185709 80 296 3.5 5.2 0.00 0.00 0.00 21 1012.1
20260504185206 81 239 2.6 1.7 0.00 0.00 0.00 21 1012.4
20260504184702 80 251 2.6 4.3 0.00 0.00 0.00 21 1012.6
20260504184157 80 344 0.9 0.9 0.00 0.00 0.00 22 1012.4
20260504183654 80 296 1.7 1.7 0.00 0.00 0.00 23 1012.6
20260504183151 79 68 0.9 0.9 0.00 0.00 0.00 22 1012.6
20260504182649 79 163 2.6 2.6 0.00 0.00 0.00 22 1012.6
20260504182146 80 212 2.6 2.6 0.00 0.00 0.00 22 1012.9
20260504181643 80 259 1.7 1.7 0.00 0.00 0.00 22 1012.6
20260504181141 79 274 3.5 6.1 0.00 0.00 0.00 22 1013.0
20260504180640 79 215 4.3 6.1 0.00 0.00 0.00 22 1012.9
20260504180138 79 141 0.0 0.0 0.00 0.00 0.00 22 1012.8
20260504175635 79 206 2.6 4.3 0.00 0.00 0.00 23 1013.0
20260504175131 79 202 1.7 2.6 0.00 0.00 0.00 22 1013.1
20260504174630 78 166 0.9 0.9 0.00 0.00 0.00 23 1013.1
20260504174126 78 207 3.5 4.3 0.00 0.00 0.00 23 1013.4
20260504173623 78 184 3.5 2.6 0.00 0.00 0.00 23 1013.0
20260504173121 77 191 1.7 1.7 0.00 0.00 0.00 23 1013.0
20260504172617 77 245 3.5 4.3 0.00 0.00 0.00 23 1013.0
20260504172114 77 221 1.7 1.7 0.00 0.00 0.00 24 1013.2
20260504171610 77 193 3.5 4.3 0.00 0.00 0.00 24 1013.2
20260504171108 77 227 3.5 4.3 0.00 0.00 0.00 23 1013.2
20260504170603 77 260 7.8 8.7 0.00 0.00 0.00 23 1013.0
20260504150947 75 196 2.6 2.6 0.00 0.00 0.00 29 1013.0
20260504150443 76 136 0.9 1.7 0.00 0.00 0.00 29 1013.2
20260504140910 72 8 0.0 0.0 0.00 0.00 0.00 33 1012.6
20260504140406 72 7 0.0 0.0 0.00 0.00 0.00 33 1012.9
20260504130331 68 309 0.0 0.0 0.00 0.00 0.00 36 1012.0
20260504120254 68 54 0.0 0.0 0.00 0.00 0.00 37 1011.5
20260504110218 68 251 0.0 0.0 0.00 0.00 0.00 37 1011.7
20260504100142 70 309 0.0 0.0 0.00 0.00 0.00 35 1011.5
20260504090105 68 69 0.0 0.0 0.00 0.00 0.00 35 1011.2
20260504081535 69 69 0.0 0.0 0.00 0.00 0.00 33 1011.0
20260504081031 69 69 0.0 0.0 0.00 0.00 0.00 32 1011.5
20260504080527 69 69 0.9 0.9 0.00 0.00 0.00 32 1011.4
20260504050340 74 187 0.9 0.9 0.00 0.00 0.00 25 1011.9
20260504045837 74 39 0.0 0.0 0.00 0.00 0.00 25 1011.8
20260504045332 74 24 0.0 0.0 0.00 0.00 0.00 25 1011.9
20260504044829 74 347 0.0 0.0 0.00 0.00 0.00 25 1011.9
20260504044326 75 317 0.0 0.0 0.00 0.00 0.00 24 1012.0
20260504043824 75 316 0.0 0.0 0.00 0.00 0.00 24 1012.1
20260504043321 75 317 0.0 0.0 0.00 0.00 0.00 24 1012.2
20260504042818 76 317 0.9 1.7 0.00 0.00 0.00 24 1012.0
20260504042314 76 274 0.0 0.0 0.00 0.00 0.00 23 1011.7
20260504041811 76 288 0.9 0.9 0.00 0.00 0.00 23 1011.8
20260504041307 76 294 1.7 1.7 0.00 0.00 0.00 23 1011.8
20260504040803 77 227 0.9 0.9 0.00 0.00 0.00 22 1011.8
20260504040301 77 286 0.9 0.9 0.00 0.00 0.00 22 1011.4
20260504035756 77 269 0.9 0.9 0.00 0.00 0.00 22 1011.4
20260504035254 77 245 2.6 4.3 0.00 0.00 0.00 21 1011.1
20260504034751 77 279 1.7 1.7 0.00 0.00 0.00 21 1011.2
20260504034248 78 267 0.9 0.9 0.00 0.00 0.00 21 1010.9
20260504033746 78 265 3.5 5.2 0.00 0.00 0.00 20 1010.9
20260504033243 78 266 1.7 1.7 0.00 0.00 0.00 20 1011.0
20260504032740 78 298 1.7 1.7 0.00 0.00 0.00 20 1010.7
20260504032237 78 275 2.6 7.8 0.00 0.00 0.00 20 1010.5
20260504031734 79 259 0.9 0.9 0.00 0.00 0.00 19 1010.5
20260504031231 79 246 6.1 7.0 0.00 0.00 0.00 19 1010.5
20260504030727 80 296 2.6 2.6 0.00 0.00 0.00 18 1010.2
20260504030225 79 280 1.7 2.6 0.00 0.00 0.00 18 1010.0
20260504025721 79 267 3.5 6.1 0.00 0.00 0.00 18 1010.2
20260504025218 80 281 0.9 0.9 0.00 0.00 0.00 17 1009.8
20260504024715 80 250 3.5 5.2 0.00 0.00 0.00 16 1009.8
20260504024211 81 287 0.9 0.9 0.00 0.00 0.00 17 1009.9
20260504023708 81 249 2.6 2.6 0.00 0.00 0.00 16 1009.6
20260504023204 81 295 2.6 4.3 0.00 0.00 0.00 16 1009.3
20260504022700 81 262 0.9 0.9 0.00 0.00 0.00 16 1009.1
20260504022156 82 279 3.5 4.3 0.00 0.00 0.00 15 1009.2
20260504021654 82 261 1.7 1.7 0.00 0.00 0.00 15 1009.2
20260504021150 82 285 7.0 7.8 0.00 0.00 0.00 14 1009.2
20260504020648 83 267 3.5 4.3 0.00 0.00 0.00 14 1009.1
20260504020143 83 251 3.5 5.2 0.00 0.00 0.00 14 1008.7
20260504015641 83 288 2.6 4.3 0.00 0.00 0.00 13 1008.5
20260504015137 84 319 2.6 4.3 0.00 0.00 0.00 13 1008.7
20260504014632 84 268 4.3 6.1 0.00 0.00 0.00 12 1008.7
20260504014130 84 271 3.5 5.2 0.00 0.00 0.00 12 1008.6
20260504013628 84 261 1.7 2.6 0.00 0.00 0.00 12 1008.6
20260504013124 85 261 5.2 6.1 0.00 0.00 0.00 12 1008.5
20260504012621 86 245 7.8 9.6 0.00 0.00 0.00 11 1008.5
20260504012120 86 280 3.5 5.2 0.00 0.00 0.00 12 1008.3
20260504011616 86 262 6.1 9.6 0.00 0.00 0.00 12 1008.4
20260504011112 86 250 4.3 6.1 0.00 0.00 0.00 12 1008.5
20260504010608 87 222 6.1 8.7 0.00 0.00 0.00 12 1008.9
20260504010104 87 259 7.8 9.6 0.00 0.00 0.00 12 1008.6
20260504005601 87 256 7.0 7.8 0.00 0.00 0.00 11 1008.9
20260504005058 87 246 7.0 8.7 0.00 0.00 0.00 11 1008.8
20260504004556 87 253 9.6 13.0 0.00 0.00 0.00 11 1009.0
20260504004053 87 227 6.1 7.0 0.00 0.00 0.00 11 1008.7
20260504003549 87 283 6.1 7.0 0.00 0.00 0.00 11 1008.7
20260504003046 87 249 6.1 8.7 0.00 0.00 0.00 12 1008.8
20260504002543 88 300 7.8 8.7 0.00 0.00 0.00 12 1008.7